Chillicothe, MO

1:48 PM CST on November 12, 2019 (GMT -0600)
Chillicothe

Weather History for KCDJ - July, 2019

Change the Weather History Date:

Sunday, July 14, 2019

  Actual Average (KIRK) Record (KIRK)
Temperature  
Mean Temperature 80 °F -  
Max Temperature 93 °F 88 °F 111 °F (1936)
Min Temperature 66 °F 67 °F 48 °F (1967)
Cooling Degree Days 14    
Growing Degree Days 30 (Base 50)    
Moisture  
Dew Point 70 °F    
Average Humidity 70    
Maximum Humidity 97    
Minimum Humidity 50    
Precipitation  
Precipitation 0.00 in - - ()
Sea Level Pressure  
Sea Level Pressure 30.02 in    
Wind  
Wind Speed 3 mph (SSE)    
Max Wind Speed 13 mph    
Max Gust Speed 20 mph    
Averages and records for this station are not official NWS values.
T = Trace of Precipitation, MM = Missing Value Source: NWS Daily Summary

Daily Weather History Graph

Daily Weather History Graph

Search for Another Location

Airport or City:

Astronomy

Jul. 14, 2019 Rise Set
Actual Time 5:57 AM CDT 8:42 PM CDT
Civil Twilight 5:25 AM CDT 9:13 PM CDT
Nautical Twilight 4:46 AM CDT 9:53 PM CDT
Astronomical Twilight 4:00 AM CDT 10:38 PM CDT
Moon 7:05 PM CDT (7/14) 3:59 AM CDT (7/14)
Length of Visible Light 15h 48m
Length of Day
14h 44m
Waxing Gibbous, 95% of the Moon is Illuminated
Jul 14
Waxing Gibbous
Jul 16
Full
Jul 24
Last Quarter
Jul 31
New
Aug 7
First Quarter

Hourly Weather History & Observations

Time (CDT) Temp. Heat Index Dew Point Humidity Pressure Visibility Wind Dir Wind Speed Gust Speed Precip Events Conditions
12:52 AM 72.0 °F - 69.1 °F 91% 30.02 in - Calm Calm - N/A   Unknown
2:52 AM 70.0 °F - 66.9 °F 90% 30.03 in - Calm Calm - N/A   Unknown
3:52 AM 69.1 °F - 66.9 °F 93% 30.03 in - Calm Calm - N/A   Unknown
4:52 AM 68.0 °F - 66.0 °F 93% 30.04 in - Calm Calm - N/A   Unknown
5:52 AM 66.9 °F - 66.0 °F 97% 30.04 in - Calm Calm - N/A   Unknown
6:52 AM 70.0 °F - 66.9 °F 90% 30.05 in - Calm Calm - N/A   Unknown
7:52 AM 77.0 °F - 71.1 °F 82% 30.04 in - Calm Calm - N/A   Unknown
8:52 AM 81.0 °F 84.1 °F 69.1 °F 67% 30.06 in - SE 3.5 mph - N/A   Unknown
9:52 AM 84.9 °F 90.7 °F 72.0 °F 65% 30.05 in - ESE 3.5 mph - N/A   Unknown
10:52 AM 87.1 °F 95.4 °F 73.9 °F 65% 30.05 in - Variable 4.6 mph - N/A   Unknown
11:52 AM 90.0 °F 99.0 °F 73.9 °F 59% 30.04 in - SE 5.8 mph - N/A   Unknown
12:52 PM 90.0 °F 96.9 °F 72.0 °F 55% 30.04 in - Variable 3.5 mph - N/A   Unknown
1:52 PM 90.0 °F 96.4 °F 71.1 °F 54% 30.02 in - South 8.1 mph - N/A   Unknown
2:52 PM 93.0 °F 100.7 °F 72.0 °F 50% 30.01 in - SE 8.1 mph - N/A   Unknown
3:52 PM 91.9 °F 99.5 °F 72.0 °F 52% 30.00 in - Variable 5.8 mph - N/A   Unknown
4:52 PM 91.9 °F 100.7 °F 73.0 °F 54% 29.99 in - South 9.2 mph - N/A   Unknown
5:52 PM 90.0 °F 97.9 °F 73.0 °F 57% 29.98 in - South 12.7 mph 19.6 mph N/A   Unknown
6:52 PM 89.1 °F 96.0 °F 72.0 °F 57% 29.98 in - South 6.9 mph - N/A   Unknown
7:52 PM 87.1 °F 92.8 °F 71.1 °F 59% 29.98 in - South 4.6 mph - N/A   Unknown
8:52 PM 84.0 °F 89.0 °F 71.1 °F 65% 29.97 in - SSE 3.5 mph - N/A   Unknown
9:52 PM 82.9 °F 87.0 °F 70.0 °F 65% 29.99 in - SSE 5.8 mph - N/A   Unknown
10:52 PM 81.0 °F 84.4 °F 70.0 °F 69% 30.00 in - SSE 5.8 mph - N/A   Unknown
11:52 PM 79.0 °F - 69.1 °F 72% 30.01 in - South 5.8 mph - N/A   Unknown